Time,TemperatureF,DewpointF,PressureIn,WindDirection,WindDirectionDegrees,WindSpeedMPH,WindSpeedGustMPH,Humidity,HourlyPrecipIn,Conditions,Clouds,dailyrainin,SoftwareType,DateUTC
2013-08-19 00:01:00,64.1,60.5,30.30,North,0,0.0,0.0,88,0.00,,,0.00,WUHU216HW,2013-08-19 04:01:00,
2013-08-19 00:02:00,64.1,60.5,30.30,North,0,0.0,0.0,88,0.00,,,0.00,WUHU216HW,2013-08-19 04:02:00,
2013-08-19 00:07:00,63.7,60.1,30.30,North,0,0.0,0.0,88,0.00,,,0.00,WUHU216HW,2013-08-19 04:07:00,
2013-08-19 00:12:00,63.5,59.9,30.30,North,0,0.0,0.0,88,0.00,,,0.00,WUHU216HW,2013-08-19 04:12:00,
2013-08-19 00:17:00,63.5,60.3,30.30,North,0,0.0,0.0,89,0.00,,,0.00,WUHU216HW,2013-08-19 04:17:00,
2013-08-19 00:23:00,63.7,60.5,30.29,North,0,0.0,0.0,89,0.00,,,0.00,WUHU216HW,2013-08-19 04:23:00,
2013-08-19 00:28:00,63.7,60.5,30.29,North,0,0.0,0.0,89,0.00,,,0.00,WUHU216HW,2013-08-19 04:28:00,
2013-08-19 00:33:00,63.7,60.5,30.29,North,0,0.0,0.0,89,0.00,,,0.00,WUHU216HW,2013-08-19 04:33:00,
2013-08-19 00:38:00,63.9,60.7,30.29,North,0,0.0,0.0,89,0.00,,,0.00,WUHU216HW,2013-08-19 04:38:00,
2013-08-19 00:43:00,64.1,60.8,30.29,North,0,0.0,0.0,89,0.00,,,0.00,WUHU216HW,2013-08-19 04:43:00,
2013-08-19 00:48:00,64.1,60.5,30.28,North,0,0.0,0.0,88,0.00,,,0.00,WUHU216HW,2013-08-19 04:48:00,
2013-08-19 00:53:00,63.9,60.3,30.28,North,0,0.0,0.0,88,0.00,,,0.00,WUHU216HW,2013-08-19 04:53:00,
2013-08-19 00:58:00,63.9,60.3,30.28,North,0,0.0,0.0,88,0.00,,,0.00,WUHU216HW,2013-08-19 04:58:00,
2013-08-19 01:03:00,63.9,60.3,30.28,North,0,0.0,0.0,88,0.00,,,0.00,WUHU216HW,2013-08-19 05:03:00,
2013-08-19 01:08:00,63.9,60.3,30.28,North,0,0.0,0.0,88,0.00,,,0.00,WUHU216HW,2013-08-19 05:08:00,
2013-08-19 01:13:00,63.9,60.3,30.28,North,0,0.0,0.0,88,0.00,,,0.00,WUHU216HW,2013-08-19 05:13:00,
2013-08-19 01:19:00,63.9,60.3,30.28,North,0,0.0,0.0,88,0.00,,,0.00,WUHU216HW,2013-08-19 05:19:00,
2013-08-19 01:24:00,63.9,60.3,30.28,North,0,0.0,0.0,88,0.00,,,0.00,WUHU216HW,2013-08-19 05:24:00,
2013-08-19 01:29:00,63.5,60.3,30.28,North,0,0.0,0.0,89,0.00,,,0.00,WUHU216HW,2013-08-19 05:29:00,
2013-08-19 01:34:00,63.4,60.1,30.28,North,0,0.0,0.0,89,0.00,,,0.00,WUHU216HW,2013-08-19 05:34:00,
2013-08-19 01:39:00,63.2,59.9,30.28,North,0,0.0,0.0,89,0.00,,,0.00,WUHU216HW,2013-08-19 05:39:00,
2013-08-19 01:44:00,63.4,60.1,30.28,North,0,0.0,0.0,89,0.00,,,0.00,WUHU216HW,2013-08-19 05:44:00,
2013-08-19 01:49:00,63.5,60.7,30.27,North,0,0.0,0.0,90,0.00,,,0.00,WUHU216HW,2013-08-19 05:49:00,
2013-08-19 01:54:00,63.7,60.8,30.27,North,0,0.0,0.0,90,0.00,,,0.00,WUHU216HW,2013-08-19 05:54:00,
2013-08-19 01:59:00,63.9,60.7,30.27,North,0,0.0,0.0,89,0.00,,,0.00,WUHU216HW,2013-08-19 05:59:00,
2013-08-19 02:04:00,63.7,60.5,30.27,North,0,0.0,0.0,89,0.00,,,0.00,WUHU216HW,2013-08-19 06:04:00,
2013-08-19 02:09:00,63.5,60.3,30.27,North,0,0.0,0.0,89,0.00,,,0.00,WUHU216HW,2013-08-19 06:09:00,
2013-08-19 02:14:00,63.5,60.3,30.27,North,0,0.0,0.0,89,0.00,,,0.00,WUHU216HW,2013-08-19 06:14:00,
2013-08-19 02:20:00,63.7,60.5,30.27,North,0,0.0,0.0,89,0.00,,,0.00,WUHU216HW,2013-08-19 06:20:00,
2013-08-19 02:25:00,63.7,60.5,30.27,North,0,0.0,0.0,89,0.00,,,0.00,WUHU216HW,2013-08-19 06:25:00,
2013-08-19 02:30:00,63.7,60.5,30.27,North,0,0.0,0.0,89,0.00,,,0.00,WUHU216HW,2013-08-19 06:30:00,
2013-08-19 02:35:00,63.7,60.5,30.27,North,0,0.0,0.0,89,0.00,,,0.00,WUHU216HW,2013-08-19 06:35:00,
2013-08-19 02:40:00,63.7,60.5,30.27,North,0,0.0,0.0,89,0.00,,,0.00,WUHU216HW,2013-08-19 06:40:00,
2013-08-19 03:00:00,63.7,60.5,30.26,North,0,0.0,0.0,89,0.00,,,0.00,WUHU216HW,2013-08-19 07:00:00,
2013-08-19 03:05:00,63.7,60.8,30.26,North,0,0.0,0.0,90,0.00,,,0.00,WUHU216HW,2013-08-19 07:05:00,
2013-08-19 03:10:00,64.1,61.2,30.26,North,0,0.0,0.0,90,0.00,,,0.00,WUHU216HW,2013-08-19 07:10:00,
2013-08-19 03:15:00,64.1,61.2,30.26,North,0,0.0,0.0,90,0.00,,,0.00,WUHU216HW,2013-08-19 07:15:00,
2013-08-19 03:20:00,64.1,60.8,30.26,North,0,0.0,0.0,89,0.00,,,0.00,WUHU216HW,2013-08-19 07:20:00,
2013-08-19 03:25:00,63.9,60.7,30.26,North,0,0.0,0.0,89,0.00,,,0.00,WUHU216HW,2013-08-19 07:25:00,
2013-08-19 03:30:00,63.9,60.7,30.26,North,0,0.0,0.0,89,0.00,,,0.00,WUHU216HW,2013-08-19 07:30:00,
2013-08-19 03:35:00,63.9,60.7,30.26,North,0,0.0,0.0,89,0.00,,,0.00,WUHU216HW,2013-08-19 07:35:00,
2013-08-19 03:58:00,64.3,61.0,30.25,North,0,0.0,0.0,89,0.00,,,0.00,WUHU216HW,2013-08-19 07:58:00,
2013-08-19 04:03:00,64.1,60.8,30.25,North,0,0.0,0.0,89,0.00,,,0.00,WUHU216HW,2013-08-19 08:03:00,
2013-08-19 04:08:00,63.9,60.7,30.25,North,0,0.0,0.0,89,0.00,,,0.00,WUHU216HW,2013-08-19 08:08:00,
2013-08-19 04:13:00,63.9,61.0,30.26,North,0,0.0,0.0,90,0.00,,,0.00,WUHU216HW,2013-08-19 08:13:00,
2013-08-19 04:18:00,63.9,61.0,30.25,North,0,0.0,0.0,90,0.00,,,0.00,WUHU216HW,2013-08-19 08:18:00,
2013-08-19 04:23:00,63.9,61.0,30.25,North,0,0.0,0.0,90,0.00,,,0.00,WUHU216HW,2013-08-19 08:23:00,
2013-08-19 04:28:00,64.1,61.2,30.26,North,0,0.0,0.0,90,0.00,,,0.00,WUHU216HW,2013-08-19 08:28:00,
2013-08-19 04:33:00,64.3,61.4,30.25,North,0,0.0,0.0,90,0.00,,,0.00,WUHU216HW,2013-08-19 08:33:00,
2013-08-19 04:38:00,64.3,61.4,30.26,North,0,0.0,0.0,90,0.00,,,0.00,WUHU216HW,2013-08-19 08:38:00,
2013-08-19 04:44:00,64.3,61.4,30.25,North,0,0.0,0.0,90,0.00,,,0.00,WUHU216HW,2013-08-19 08:44:00,
2013-08-19 04:49:00,64.3,61.4,30.26,North,0,0.0,0.0,90,0.00,,,0.00,WUHU216HW,2013-08-19 08:49:00,
2013-08-19 04:54:00,64.3,61.0,30.26,North,0,0.0,0.0,89,0.00,,,0.00,WUHU216HW,2013-08-19 08:54:00,
2013-08-19 04:59:00,64.4,61.6,30.26,North,0,0.0,0.0,90,0.00,,,0.00,WUHU216HW,2013-08-19 08:59:00,
2013-08-19 05:04:00,64.3,61.4,30.26,North,0,0.0,0.0,90,0.00,,,0.00,WUHU216HW,2013-08-19 09:04:00,
2013-08-19 05:09:00,64.1,61.2,30.26,North,0,0.0,0.0,90,0.00,,,0.00,WUHU216HW,2013-08-19 09:09:00,
2013-08-19 05:14:00,63.9,61.0,30.26,North,0,0.0,0.0,90,0.00,,,0.00,WUHU216HW,2013-08-19 09:14:00,
2013-08-19 05:19:00,63.9,61.0,30.26,North,0,0.0,0.0,90,0.00,,,0.00,WUHU216HW,2013-08-19 09:19:00,
2013-08-19 05:24:00,63.9,61.0,30.26,North,0,0.0,0.0,90,0.00,,,0.00,WUHU216HW,2013-08-19 09:24:00,
2013-08-19 05:29:00,64.1,61.2,30.26,North,0,0.0,0.0,90,0.00,,,0.00,WUHU216HW,2013-08-19 09:29:00,
2013-08-19 05:34:00,64.1,61.2,30.26,North,0,0.0,0.0,90,0.00,,,0.00,WUHU216HW,2013-08-19 09:34:00,
2013-08-19 05:39:00,64.3,61.7,30.26,North,0,0.0,0.0,91,0.00,,,0.00,WUHU216HW,2013-08-19 09:39:00,
2013-08-19 05:45:00,64.4,61.8,30.26,North,0,0.0,0.0,91,0.00,,,0.00,WUHU216HW,2013-08-19 09:45:00,
2013-08-19 05:50:00,64.6,62.0,30.26,North,0,0.0,0.0,91,0.00,,,0.00,WUHU216HW,2013-08-19 09:50:00,
2013-08-19 05:55:00,64.4,61.6,30.26,North,0,0.0,0.0,90,0.00,,,0.00,WUHU216HW,2013-08-19 09:55:00,
2013-08-19 06:00:00,64.4,61.6,30.26,North,0,0.0,0.0,90,0.00,,,0.00,WUHU216HW,2013-08-19 10:00:00,
2013-08-19 06:05:00,64.3,61.4,30.27,North,0,0.0,0.0,90,0.00,,,0.00,WUHU216HW,2013-08-19 10:05:00,
2013-08-19 06:10:00,64.3,61.4,30.27,North,0,0.0,0.0,90,0.00,,,0.00,WUHU216HW,2013-08-19 10:10:00,
2013-08-19 06:15:00,64.3,61.7,30.27,North,0,0.0,0.0,91,0.00,,,0.00,WUHU216HW,2013-08-19 10:15:00,
2013-08-19 06:20:00,64.3,61.7,30.27,North,0,0.0,0.0,91,0.00,,,0.00,WUHU216HW,2013-08-19 10:20:00,
2013-08-19 06:25:00,64.4,61.8,30.27,North,0,0.0,0.0,91,0.00,,,0.00,WUHU216HW,2013-08-19 10:25:00,
2013-08-19 06:30:00,64.4,61.8,30.27,North,0,0.0,0.0,91,0.00,,,0.00,WUHU216HW,2013-08-19 10:30:00,
2013-08-19 06:35:00,64.4,61.8,30.27,North,0,0.0,0.0,91,0.00,,,0.00,WUHU216HW,2013-08-19 10:35:00,
2013-08-19 06:40:00,64.4,61.8,30.27,North,0,0.0,0.0,91,0.00,,,0.00,WUHU216HW,2013-08-19 10:40:00,
2013-08-19 06:46:00,64.4,61.8,30.27,North,0,0.0,0.0,91,0.00,,,0.00,WUHU216HW,2013-08-19 10:46:00,
2013-08-19 06:51:00,64.6,62.0,30.27,North,0,0.0,0.0,91,0.00,,,0.00,WUHU216HW,2013-08-19 10:51:00,
2013-08-19 06:56:00,64.8,62.2,30.27,North,0,0.0,0.0,91,0.00,,,0.00,WUHU216HW,2013-08-19 10:56:00,
2013-08-19 07:01:00,64.8,62.2,30.27,North,0,0.0,0.0,91,0.00,,,0.00,WUHU216HW,2013-08-19 11:01:00,
2013-08-19 07:06:00,65.0,62.4,30.27,North,0,0.0,0.0,91,0.00,,,0.00,WUHU216HW,2013-08-19 11:06:00,
2013-08-19 07:11:00,64.8,62.2,30.27,North,0,0.0,0.0,91,0.00,,,0.00,WUHU216HW,2013-08-19 11:11:00,
2013-08-19 07:16:00,64.8,62.2,30.27,North,0,0.0,0.0,91,0.00,,,0.00,WUHU216HW,2013-08-19 11:16:00,
2013-08-19 07:21:00,64.8,62.2,30.27,North,0,0.0,0.0,91,0.00,,,0.00,WUHU216HW,2013-08-19 11:21:00,
2013-08-19 07:26:00,64.8,62.2,30.27,North,0,0.0,0.0,91,0.00,,,0.00,WUHU216HW,2013-08-19 11:26:00,
2013-08-19 07:31:00,64.8,62.2,30.27,North,0,0.0,0.0,91,0.00,,,0.00,WUHU216HW,2013-08-19 11:31:00,
2013-08-19 07:36:00,64.8,62.2,30.27,North,0,0.0,0.0,91,0.00,,,0.00,WUHU216HW,2013-08-19 11:36:00,
2013-08-19 07:42:00,64.8,62.2,30.27,North,0,0.0,0.0,91,0.00,,,0.00,WUHU216HW,2013-08-19 11:42:00,
2013-08-19 07:47:00,64.8,62.2,30.27,North,0,0.0,0.0,91,0.00,,,0.00,WUHU216HW,2013-08-19 11:47:00,
2013-08-19 07:52:00,64.8,62.2,30.27,North,0,0.0,0.0,91,0.00,,,0.00,WUHU216HW,2013-08-19 11:52:00,
2013-08-19 07:57:00,64.8,62.2,30.27,North,0,0.0,0.0,91,0.00,,,0.00,WUHU216HW,2013-08-19 11:57:00,
2013-08-19 08:02:00,65.0,62.4,30.27,North,0,0.0,0.0,91,0.00,,,0.00,WUHU216HW,2013-08-19 12:02:00,
2013-08-19 08:07:00,65.0,62.4,30.27,North,0,0.0,0.0,91,0.00,,,0.00,WUHU216HW,2013-08-19 12:07:00,
2013-08-19 08:12:00,65.2,62.5,30.27,North,0,0.0,0.0,91,0.00,,,0.00,WUHU216HW,2013-08-19 12:12:00,
2013-08-19 08:17:00,65.2,62.5,30.27,North,0,0.0,0.0,91,0.00,,,0.00,WUHU216HW,2013-08-19 12:17:00,
2013-08-19 08:22:00,65.2,62.5,30.27,North,0,0.0,0.0,91,0.00,,,0.00,WUHU216HW,2013-08-19 12:22:00,
2013-08-19 08:27:00,65.3,62.6,30.27,North,0,0.0,0.0,91,0.00,,,0.00,WUHU216HW,2013-08-19 12:27:00,
2013-08-19 08:32:00,65.2,62.5,30.27,North,0,0.0,0.0,91,0.00,,,0.00,WUHU216HW,2013-08-19 12:32:00,
2013-08-19 08:38:00,65.2,62.5,30.27,North,0,0.0,0.0,91,0.00,,,0.00,WUHU216HW,2013-08-19 12:38:00,
2013-08-19 08:43:00,65.2,62.5,30.27,North,0,0.0,0.0,91,0.00,,,0.00,WUHU216HW,2013-08-19 12:43:00,
2013-08-19 08:48:00,65.2,62.5,30.27,North,0,0.0,0.0,91,0.00,,,0.00,WUHU216HW,2013-08-19 12:48:00,
2013-08-19 09:00:00,65.2,62.5,30.27,North,0,0.0,0.0,91,0.00,,,0.00,WUHU216HW,2013-08-19 13:00:00,
2013-08-19 09:05:00,65.2,62.5,30.28,North,0,0.0,0.0,91,0.00,,,0.00,WUHU216HW,2013-08-19 13:05:00,
2013-08-19 09:10:00,65.3,62.6,30.28,North,0,0.0,0.0,91,0.00,,,0.00,WUHU216HW,2013-08-19 13:10:00,
2013-08-19 09:15:00,65.3,62.6,30.27,North,0,0.0,0.0,91,0.00,,,0.00,WUHU216HW,2013-08-19 13:15:00,
2013-08-19 09:20:00,65.5,62.8,30.27,North,0,0.0,0.0,91,0.00,,,0.00,WUHU216HW,2013-08-19 13:20:00,
2013-08-19 09:25:00,65.7,63.0,30.27,North,0,0.0,0.0,91,0.00,,,0.00,WUHU216HW,2013-08-19 13:25:00,
2013-08-19 09:30:00,65.9,63.2,30.27,North,0,0.0,0.0,91,0.00,,,0.00,WUHU216HW,2013-08-19 13:30:00,
2013-08-19 09:35:00,66.2,63.5,30.27,North,0,0.0,0.0,91,0.00,,,0.00,WUHU216HW,2013-08-19 13:35:00,
2013-08-19 09:40:00,66.2,63.8,30.27,North,0,0.0,0.0,92,0.00,,,0.00,WUHU216HW,2013-08-19 13:40:00,
2013-08-19 09:46:00,66.2,63.8,30.27,North,0,0.0,0.0,92,0.00,,,0.00,WUHU216HW,2013-08-19 13:46:00,
2013-08-19 10:00:00,67.0,64.2,30.27,North,0,0.0,0.0,91,0.00,,,0.00,WUHU216HW,2013-08-19 14:00:00,
2013-08-19 10:05:00,67.5,64.7,30.27,North,0,0.0,0.0,91,0.00,,,0.00,WUHU216HW,2013-08-19 14:05:00,
2013-08-19 10:10:00,68.0,65.3,30.27,North,0,0.0,0.0,91,0.00,,,0.00,WUHU216HW,2013-08-19 14:10:00,
2013-08-19 10:15:00,68.0,65.0,30.27,North,0,0.0,0.0,90,0.00,,,0.00,WUHU216HW,2013-08-19 14:15:00,
2013-08-19 10:20:00,68.0,65.0,30.27,North,0,0.0,0.0,90,0.00,,,0.00,WUHU216HW,2013-08-19 14:20:00,
2013-08-19 10:25:00,68.2,65.2,30.27,North,0,0.0,0.0,90,0.00,,,0.00,WUHU216HW,2013-08-19 14:25:00,
2013-08-19 10:30:00,68.2,65.2,30.27,North,0,0.0,0.0,90,0.00,,,0.00,WUHU216HW,2013-08-19 14:30:00,
2013-08-19 10:35:00,68.4,65.0,30.27,North,0,0.0,0.0,89,0.00,,,0.00,WUHU216HW,2013-08-19 14:35:00,
2013-08-19 10:40:00,68.8,65.3,30.27,North,0,0.0,0.0,89,0.00,,,0.00,WUHU216HW,2013-08-19 14:40:00,
2013-08-19 10:45:00,68.9,65.5,30.27,North,0,0.0,0.0,89,0.00,,,0.00,WUHU216HW,2013-08-19 14:45:00,
2013-08-19 10:51:00,68.9,65.3,30.27,North,0,0.0,0.0,88,0.00,,,0.00,WUHU216HW,2013-08-19 14:51:00,
2013-08-19 10:56:00,69.1,65.4,30.27,North,0,0.0,0.0,88,0.00,,,0.00,WUHU216HW,2013-08-19 14:56:00,
2013-08-19 11:01:00,68.9,65.3,30.27,North,0,0.0,0.0,88,0.00,,,0.00,WUHU216HW,2013-08-19 15:01:00,
2013-08-19 11:06:00,69.1,65.4,30.27,North,0,0.0,0.0,88,0.00,,,0.00,WUHU216HW,2013-08-19 15:06:00,
2013-08-19 11:11:00,69.1,65.4,30.27,North,0,0.0,0.0,88,0.00,,,0.00,WUHU216HW,2013-08-19 15:11:00,
2013-08-19 11:16:00,68.9,65.3,30.27,North,0,0.0,0.0,88,0.00,,,0.00,WUHU216HW,2013-08-19 15:16:00,
2013-08-19 11:21:00,68.9,65.3,30.27,North,0,0.0,0.0,88,0.00,,,0.00,WUHU216HW,2013-08-19 15:21:00,
2013-08-19 11:26:00,68.8,65.1,30.27,North,0,0.0,0.0,88,0.00,,,0.00,WUHU216HW,2013-08-19 15:26:00,
2013-08-19 11:31:00,68.8,65.1,30.27,North,0,0.0,0.0,88,0.00,,,0.00,WUHU216HW,2013-08-19 15:31:00,
2013-08-19 11:36:00,68.8,65.1,30.27,North,0,0.0,0.0,88,0.00,,,0.00,WUHU216HW,2013-08-19 15:36:00,
2013-08-19 11:41:00,68.9,65.3,30.27,North,0,0.0,0.0,88,0.00,,,0.00,WUHU216HW,2013-08-19 15:41:00,
2013-08-19 11:46:00,68.9,65.3,30.27,North,0,0.0,0.0,88,0.00,,,0.00,WUHU216HW,2013-08-19 15:46:00,
2013-08-19 11:51:00,68.9,65.3,30.27,North,0,0.0,0.0,88,0.00,,,0.00,WUHU216HW,2013-08-19 15:51:00,
2013-08-19 11:57:00,69.1,65.4,30.27,North,0,0.0,0.0,88,0.00,,,0.00,WUHU216HW,2013-08-19 15:57:00,
2013-08-19 12:02:00,69.3,65.6,30.27,North,0,0.0,0.0,88,0.00,,,0.00,WUHU216HW,2013-08-19 16:02:00,
2013-08-19 12:07:00,69.3,65.3,30.27,North,0,0.0,0.0,87,0.00,,,0.00,WUHU216HW,2013-08-19 16:07:00,
2013-08-19 12:12:00,69.7,65.6,30.27,North,0,0.0,0.0,87,0.00,,,0.00,WUHU216HW,2013-08-19 16:12:00,
2013-08-19 12:17:00,70.6,66.5,30.27,North,0,0.0,0.0,87,0.00,,,0.00,WUHU216HW,2013-08-19 16:17:00,
2013-08-19 12:22:00,71.3,66.2,30.27,North,0,0.0,0.0,84,0.00,,,0.00,WUHU216HW,2013-08-19 16:22:00,
2013-08-19 12:27:00,71.5,66.3,30.27,North,0,0.0,0.0,84,0.00,,,0.00,WUHU216HW,2013-08-19 16:27:00,
2013-08-19 12:32:00,71.3,66.2,30.27,North,0,0.0,0.0,84,0.00,,,0.00,WUHU216HW,2013-08-19 16:32:00,
2013-08-19 12:37:00,71.1,66.3,30.27,North,0,0.0,0.0,85,0.00,,,0.00,WUHU216HW,2013-08-19 16:37:00,
2013-08-19 12:42:00,71.3,66.2,30.27,North,0,0.0,0.0,84,0.00,,,0.00,WUHU216HW,2013-08-19 16:42:00,
2013-08-19 12:47:00,71.3,66.2,30.26,North,0,0.0,0.0,84,0.00,,,0.00,WUHU216HW,2013-08-19 16:47:00,
2013-08-19 12:52:00,71.5,66.0,30.26,North,0,0.0,0.0,83,0.00,,,0.00,WUHU216HW,2013-08-19 16:52:00,
2013-08-19 12:57:00,71.6,66.2,30.26,North,0,0.0,0.0,83,0.00,,,0.00,WUHU216HW,2013-08-19 16:57:00,
2013-08-19 13:02:00,71.6,65.9,30.26,North,0,0.0,0.0,82,0.00,,,0.00,WUHU216HW,2013-08-19 17:02:00,
2013-08-19 13:07:00,71.5,66.0,30.26,North,0,0.0,0.0,83,0.00,,,0.00,WUHU216HW,2013-08-19 17:07:00,
2013-08-19 13:13:00,71.6,66.2,30.26,North,0,0.0,0.0,83,0.00,,,0.00,WUHU216HW,2013-08-19 17:13:00,
2013-08-19 13:18:00,72.2,66.7,30.26,North,0,0.0,0.0,83,0.00,,,0.00,WUHU216HW,2013-08-19 17:18:00,
2013-08-19 13:23:00,73.4,68.0,30.25,North,0,0.0,0.0,83,0.00,,,0.00,WUHU216HW,2013-08-19 17:23:00,
2013-08-19 13:28:00,74.3,68.2,30.25,North,0,0.0,0.0,81,0.00,,,0.00,WUHU216HW,2013-08-19 17:28:00,
2013-08-19 13:33:00,75.1,69.0,30.25,North,0,0.0,0.0,81,0.00,,,0.00,WUHU216HW,2013-08-19 17:33:00,
2013-08-19 13:38:00,75.2,68.4,30.25,North,0,0.0,0.0,79,0.00,,,0.00,WUHU216HW,2013-08-19 17:38:00,
2013-08-19 13:43:00,74.9,67.6,30.25,North,0,0.0,0.0,78,0.00,,,0.00,WUHU216HW,2013-08-19 17:43:00,
2013-08-19 13:48:00,74.5,67.7,30.25,North,0,0.0,0.0,79,0.00,,,0.00,WUHU216HW,2013-08-19 17:48:00,
2013-08-19 13:53:00,74.3,67.5,30.25,North,0,0.0,0.0,79,0.00,,,0.00,WUHU216HW,2013-08-19 17:53:00,
2013-08-19 13:59:00,74.3,67.5,30.25,North,0,0.0,0.0,79,0.00,,,0.00,WUHU216HW,2013-08-19 17:59:00,
2013-08-19 14:04:00,74.9,67.6,30.25,North,0,0.0,0.0,78,0.00,,,0.00,WUHU216HW,2013-08-19 18:04:00,
2013-08-19 14:09:00,75.8,68.0,30.24,North,0,0.0,0.0,77,0.00,,,0.00,WUHU216HW,2013-08-19 18:09:00,
2013-08-19 14:14:00,76.1,68.4,30.24,North,0,0.0,0.0,77,0.00,,,0.00,WUHU216HW,2013-08-19 18:14:00,
2013-08-19 14:19:00,76.1,68.1,30.24,North,0,0.0,0.0,76,0.00,,,0.00,WUHU216HW,2013-08-19 18:19:00,
2013-08-19 14:24:00,76.3,68.6,30.25,North,0,0.0,0.0,77,0.00,,,0.00,WUHU216HW,2013-08-19 18:24:00,
2013-08-19 14:29:00,76.3,68.2,30.24,North,0,0.0,0.0,76,0.00,,,0.00,WUHU216HW,2013-08-19 18:29:00,
2013-08-19 14:34:00,76.9,68.7,30.24,North,0,0.0,0.0,76,0.00,,,0.00,WUHU216HW,2013-08-19 18:34:00,
2013-08-19 14:39:00,76.9,68.0,30.24,North,0,0.0,0.0,74,0.00,,,0.00,WUHU216HW,2013-08-19 18:39:00,
2013-08-19 14:44:00,77.0,68.5,30.24,North,0,0.0,0.0,75,0.00,,,0.00,WUHU216HW,2013-08-19 18:44:00,
2013-08-19 14:49:00,77.2,66.8,30.24,North,0,0.0,0.0,70,0.00,,,0.00,WUHU216HW,2013-08-19 18:49:00,
2013-08-19 14:55:00,77.2,66.8,30.24,North,0,0.0,0.0,70,0.00,,,0.00,WUHU216HW,2013-08-19 18:55:00,
2013-08-19 15:00:00,77.6,66.6,30.24,North,0,0.0,0.0,69,0.00,,,0.00,WUHU216HW,2013-08-19 19:00:00,
2013-08-19 15:05:00,77.9,67.0,30.24,North,0,0.0,0.0,69,0.00,,,0.00,WUHU216HW,2013-08-19 19:05:00,
2013-08-19 15:10:00,78.1,67.2,30.24,North,0,0.0,0.0,69,0.00,,,0.00,WUHU216HW,2013-08-19 19:10:00,
2013-08-19 15:15:00,78.5,67.9,30.24,North,0,0.0,0.0,70,0.00,,,0.00,WUHU216HW,2013-08-19 19:15:00,
2013-08-19 15:20:00,79.2,68.9,30.24,North,0,0.0,0.0,71,0.00,,,0.00,WUHU216HW,2013-08-19 19:20:00,
2013-08-19 15:25:00,79.6,67.6,30.24,North,0,0.0,0.0,67,0.00,,,0.00,WUHU216HW,2013-08-19 19:25:00,
2013-08-19 15:30:00,79.7,67.8,30.24,North,0,0.0,0.0,67,0.00,,,0.00,WUHU216HW,2013-08-19 19:30:00,
2013-08-19 15:35:00,79.9,68.4,30.24,North,0,0.0,0.0,68,0.00,,,0.00,WUHU216HW,2013-08-19 19:35:00,
2013-08-19 15:40:00,80.3,68.3,30.23,West,270,2.2,2.2,67,0.00,,,0.00,WUHU216HW,2013-08-19 19:40:00,
2013-08-19 15:46:00,80.3,65.2,30.23,North,0,0.0,2.2,60,0.00,,,0.00,WUHU216HW,2013-08-19 19:46:00,
2013-08-19 15:51:00,80.5,67.1,30.23,North,0,0.0,2.2,64,0.00,,,0.00,WUHU216HW,2013-08-19 19:51:00,
2013-08-19 15:56:00,80.6,66.0,30.23,North,0,0.0,0.0,61,0.00,,,0.00,WUHU216HW,2013-08-19 19:56:00,
2013-08-19 16:01:00,81.0,66.8,30.23,North,0,0.0,0.0,62,0.00,,,0.00,WUHU216HW,2013-08-19 20:01:00,
2013-08-19 16:06:00,81.0,65.9,30.23,North,0,0.0,0.0,60,0.00,,,0.00,WUHU216HW,2013-08-19 20:06:00,
2013-08-19 16:11:00,80.1,66.3,30.23,North,0,0.0,0.0,63,0.00,,,0.00,WUHU216HW,2013-08-19 20:11:00,
2013-08-19 16:16:00,80.1,66.3,30.23,North,0,0.0,0.0,63,0.00,,,0.00,WUHU216HW,2013-08-19 20:16:00,
2013-08-19 16:41:00,80.8,66.6,30.22,North,0,0.0,0.0,62,0.00,,,0.00,WUHU216HW,2013-08-19 20:41:00,
2013-08-19 16:46:00,80.5,66.7,30.22,North,0,0.0,0.0,63,0.00,,,0.00,WUHU216HW,2013-08-19 20:46:00,
2013-08-19 16:51:00,80.1,65.9,30.22,North,0,0.0,0.0,62,0.00,,,0.00,WUHU216HW,2013-08-19 20:51:00,
2013-08-19 16:56:00,80.1,65.9,30.22,North,0,0.0,0.0,62,0.00,,,0.00,WUHU216HW,2013-08-19 20:56:00,
2013-08-19 17:01:00,79.7,65.6,30.22,WSW,248,0.8,0.8,62,0.00,,,0.00,WUHU216HW,2013-08-19 21:01:00,
2013-08-19 17:06:00,79.7,65.2,30.22,North,0,0.0,0.8,61,0.00,,,0.00,WUHU216HW,2013-08-19 21:06:00,
2013-08-19 17:11:00,79.7,65.6,30.22,North,0,0.0,0.8,62,0.00,,,0.00,WUHU216HW,2013-08-19 21:11:00,
2013-08-19 17:16:00,79.7,65.6,30.22,North,0,0.0,0.0,62,0.00,,,0.00,WUHU216HW,2013-08-19 21:16:00,
2013-08-19 17:37:00,77.2,65.0,30.22,North,0,0.0,0.0,66,0.00,,,0.00,WUHU216HW,2013-08-19 21:37:00,
2013-08-19 17:42:00,76.7,64.4,30.22,North,0,0.0,0.0,66,0.00,,,0.00,WUHU216HW,2013-08-19 21:42:00,
2013-08-19 17:47:00,77.0,64.8,30.22,North,0,0.0,0.0,66,0.00,,,0.00,WUHU216HW,2013-08-19 21:47:00,
2013-08-19 17:52:00,77.6,65.8,30.22,North,0,0.0,0.0,67,0.00,,,0.00,WUHU216HW,2013-08-19 21:52:00,
2013-08-19 17:57:00,78.1,65.8,30.22,North,0,0.0,0.0,66,0.00,,,0.00,WUHU216HW,2013-08-19 21:57:00,
2013-08-19 18:02:00,78.3,65.5,30.22,North,0,0.0,0.0,65,0.00,,,0.00,WUHU216HW,2013-08-19 22:02:00,
2013-08-19 18:07:00,78.1,65.3,30.22,North,0,0.0,0.0,65,0.00,,,0.00,WUHU216HW,2013-08-19 22:07:00,
2013-08-19 18:12:00,77.2,64.5,30.22,North,0,0.0,0.0,65,0.00,,,0.00,WUHU216HW,2013-08-19 22:12:00,
2013-08-19 18:17:00,76.3,64.1,30.22,North,0,0.0,0.0,66,0.00,,,0.00,WUHU216HW,2013-08-19 22:17:00,
2013-08-19 18:22:00,76.0,63.7,30.22,North,0,0.0,0.0,66,0.00,,,0.00,WUHU216HW,2013-08-19 22:22:00,
2013-08-19 18:27:00,76.1,64.4,30.22,North,0,0.0,0.0,67,0.00,,,0.00,WUHU216HW,2013-08-19 22:27:00,
2013-08-19 18:32:00,76.7,65.3,30.22,North,0,0.0,0.0,68,0.00,,,0.00,WUHU216HW,2013-08-19 22:32:00,
2013-08-19 18:37:00,76.9,65.1,30.22,North,0,0.0,0.0,67,0.00,,,0.00,WUHU216HW,2013-08-19 22:37:00,
2013-08-19 18:43:00,76.9,64.6,30.22,North,0,0.0,0.0,66,0.00,,,0.00,WUHU216HW,2013-08-19 22:43:00,
2013-08-19 18:48:00,76.3,64.1,30.22,North,0,0.0,0.0,66,0.00,,,0.00,WUHU216HW,2013-08-19 22:48:00,
2013-08-19 18:53:00,76.3,65.0,30.22,North,0,0.0,0.0,68,0.00,,,0.00,WUHU216HW,2013-08-19 22:53:00,
2013-08-19 18:58:00,76.0,64.6,30.22,North,0,0.0,0.0,68,0.00,,,0.00,WUHU216HW,2013-08-19 22:58:00,
2013-08-19 19:03:00,75.2,63.6,30.22,North,0,0.0,0.0,67,0.00,,,0.00,WUHU216HW,2013-08-19 23:03:00,
2013-08-19 19:08:00,74.7,63.0,30.22,North,0,0.0,0.0,67,0.00,,,0.00,WUHU216HW,2013-08-19 23:08:00,
2013-08-19 19:13:00,74.2,62.5,30.22,North,0,0.0,0.0,67,0.00,,,0.00,WUHU216HW,2013-08-19 23:13:00,
2013-08-19 19:18:00,74.2,63.4,30.23,North,0,0.0,0.0,69,0.00,,,0.00,WUHU216HW,2013-08-19 23:18:00,
2013-08-19 19:23:00,74.2,64.2,30.23,North,0,0.0,0.0,71,0.00,,,0.00,WUHU216HW,2013-08-19 23:23:00,
2013-08-19 19:28:00,73.8,63.9,30.23,North,0,0.0,0.0,71,0.00,,,0.00,WUHU216HW,2013-08-19 23:28:00,
2013-08-19 19:34:00,73.8,63.9,30.23,North,0,0.0,0.0,71,0.00,,,0.00,WUHU216HW,2013-08-19 23:34:00,
2013-08-19 19:39:00,73.8,63.9,30.23,WSW,248,0.4,0.4,71,0.00,,,0.00,WUHU216HW,2013-08-19 23:39:00,
2013-08-19 19:44:00,73.8,63.9,30.23,West,270,0.8,0.8,71,0.00,,,0.00,WUHU216HW,2013-08-19 23:44:00,
2013-08-19 19:49:00,73.4,63.2,30.23,WSW,248,0.4,0.8,70,0.00,,,0.00,WUHU216HW,2013-08-19 23:49:00,
2013-08-19 19:54:00,73.4,63.2,30.23,WSW,248,0.4,0.8,70,0.00,,,0.00,WUHU216HW,2013-08-19 23:54:00,
2013-08-19 19:59:00,73.1,62.4,30.23,West,270,0.8,0.8,69,0.00,,,0.00,WUHU216HW,2013-08-19 23:59:00,
2013-08-19 20:04:00,73.1,62.4,30.23,West,270,0.8,0.8,69,0.00,,,0.00,WUHU216HW,2013-08-20 00:04:00,
2013-08-19 21:02:00,67.9,60.9,30.23,West,270,0.0,0.0,78,0.00,,,0.00,WUHU216HW,2013-08-20 01:02:00,
2013-08-19 21:07:00,67.7,60.7,30.23,North,0,0.0,0.0,78,0.00,,,0.00,WUHU216HW,2013-08-20 01:07:00,
2013-08-19 21:12:00,67.5,60.9,30.24,North,0,0.0,0.0,79,0.00,,,0.00,WUHU216HW,2013-08-20 01:12:00,
2013-08-19 21:17:00,67.3,60.7,30.24,North,0,0.0,0.0,79,0.00,,,0.00,WUHU216HW,2013-08-20 01:17:00,
2013-08-19 21:22:00,67.1,60.5,30.24,North,0,0.0,0.0,79,0.00,,,0.00,WUHU216HW,2013-08-20 01:22:00,
2013-08-19 21:27:00,66.2,59.9,30.24,North,0,0.0,0.0,80,0.00,,,0.00,WUHU216HW,2013-08-20 01:27:00,
2013-08-19 21:32:00,65.7,59.8,30.24,North,0,0.0,0.0,81,0.00,,,0.00,WUHU216HW,2013-08-20 01:32:00,
2013-08-19 21:37:00,65.2,59.2,30.25,North,0,0.0,0.0,81,0.00,,,0.00,WUHU216HW,2013-08-20 01:37:00,
2013-08-19 21:43:00,65.2,59.5,30.25,North,0,0.0,0.0,82,0.00,,,0.00,WUHU216HW,2013-08-20 01:43:00,
2013-08-19 21:48:00,65.2,59.5,30.25,North,0,0.0,0.0,82,0.00,,,0.00,WUHU216HW,2013-08-20 01:48:00,
2013-08-19 21:53:00,65.2,59.5,30.25,North,0,0.0,0.0,82,0.00,,,0.00,WUHU216HW,2013-08-20 01:53:00,
2013-08-19 21:58:00,65.2,59.5,30.25,North,0,0.0,0.0,82,0.00,,,0.00,WUHU216HW,2013-08-20 01:58:00,
2013-08-19 22:03:00,63.9,58.3,30.25,North,0,0.0,0.0,82,0.00,,,0.00,WUHU216HW,2013-08-20 02:03:00,
2013-08-19 22:08:00,63.9,58.6,30.25,North,0,0.0,0.0,83,0.00,,,0.00,WUHU216HW,2013-08-20 02:08:00,
2013-08-19 22:13:00,64.1,58.8,30.24,North,0,0.0,0.0,83,0.00,,,0.00,WUHU216HW,2013-08-20 02:13:00,
2013-08-19 22:18:00,63.9,58.6,30.25,North,0,0.0,0.0,83,0.00,,,0.00,WUHU216HW,2013-08-20 02:18:00,
2013-08-19 22:23:00,63.7,58.4,30.25,North,0,0.0,0.0,83,0.00,,,0.00,WUHU216HW,2013-08-20 02:23:00,
2013-08-19 22:28:00,63.5,58.2,30.25,North,0,0.0,0.0,83,0.00,,,0.00,WUHU216HW,2013-08-20 02:28:00,
2013-08-19 22:33:00,63.5,58.2,30.25,North,0,0.0,0.0,83,0.00,,,0.00,WUHU216HW,2013-08-20 02:33:00,
2013-08-19 22:39:00,63.2,57.9,30.25,North,0,0.0,0.0,83,0.00,,,0.00,WUHU216HW,2013-08-20 02:39:00,
2013-08-19 22:44:00,62.6,57.7,30.25,North,0,0.0,0.0,84,0.00,,,0.00,WUHU216HW,2013-08-20 02:44:00,
2013-08-19 22:49:00,62.5,57.5,30.25,North,0,0.0,0.0,84,0.00,,,0.00,WUHU216HW,2013-08-20 02:49:00,
2013-08-19 22:54:00,62.5,57.5,30.25,North,0,0.0,0.0,84,0.00,,,0.00,WUHU216HW,2013-08-20 02:54:00,
2013-08-19 22:59:00,62.3,57.3,30.25,North,0,0.0,0.0,84,0.00,,,0.00,WUHU216HW,2013-08-20 02:59:00,
2013-08-19 23:04:00,62.3,57.3,30.25,North,0,0.0,0.0,84,0.00,,,0.00,WUHU216HW,2013-08-20 03:04:00,
2013-08-19 23:09:00,62.3,57.3,30.25,North,0,0.0,0.0,84,0.00,,,0.00,WUHU216HW,2013-08-20 03:09:00,
2013-08-19 23:14:00,61.9,57.1,30.26,North,0,0.0,0.0,84,0.00,,,0.00,WUHU216HW,2013-08-20 03:14:00,
2013-08-19 23:19:00,61.7,57.2,30.25,North,0,0.0,0.0,85,0.00,,,0.00,WUHU216HW,2013-08-20 03:19:00,
2013-08-19 23:24:00,61.7,57.2,30.25,North,0,0.0,0.0,85,0.00,,,0.00,WUHU216HW,2013-08-20 03:24:00,
2013-08-19 23:48:00,60.3,56.2,30.26,North,0,0.0,0.0,86,0.00,,,0.00,WUHU216HW,2013-08-20 03:48:00,
2013-08-19 23:53:00,60.1,56.0,30.26,North,0,0.0,0.0,86,0.00,,,0.00,WUHU216HW,2013-08-20 03:53:00,
2013-08-19 23:58:00,60.5,56.6,30.26,North,0,0.0,0.0,87,0.00,,,0.00,WUHU216HW,2013-08-20 03:58:00,